Weather History for Ionia, MI

Change the Weather History Date:

Wednesday, May 8, 2013

  Actual Average (KGRR) Record (KGRR)
Temperature  
Mean Temperature 64 °F 56 °F  
Max Temperature 78 °F 67 °F 89 °F (1926)
Min Temperature 51 °F 45 °F 27 °F (1976)
Degree Days  
Heating Degree Days 0 10  
Month to date heating degree days 85  
Since 1 July heating degree days 6290  
Cooling Degree Days 0 1  
Month to date cooling degree days 4  
Year to date cooling degree days 12  
Growing Degree Days 14 (Base 50)    
Moisture  
Dew Point 51 °F    
Average Humidity 67    
Maximum Humidity 97    
Minimum Humidity 36    
Precipitation  
Precipitation 0.01 in 0.12 in 1.50 in (1901)
Month to date precipitation 0.99  
Year to date precipitation 10.59  
Snow  
Snow 0.00 in 0.00 in T in (1980)
Month to date snowfall 0.0  
Since 1 July snowfall 74.9  
Snow Depth -    
Sea Level Pressure  
Sea Level Pressure 30.01 in    
Wind  
Wind Speed 2 mph (North)    
Max Wind Speed 9 mph    
Max Gust Speed -    
Visibility 9 miles    
Events Rain    
T = Trace of Precipitation, MM = Missing Value Source: NWS Daily Summary

Daily Weather History Graph

Daily Weather History Graph

Search for Another Location

Airport:

Trip Planner

Search our weather history database for the weather conditions in past years. The results will help you decide how hot, cold, wet, or windy it might be!

Date:

Astronomy

May. 08, 2013 Rise Set
Actual Time 6:24 AM EDT 8:49 PM EDT
Civil Twilight 5:53 AM EDT 9:21 PM EDT
Nautical Twilight 5:13 AM EDT 10:00 PM EDT
Astronomical Twilight 4:29 AM EDT 10:45 PM EDT
Moon 5:34 AM EDT (5/8) 7:45 PM EDT (5/8)
Length of Visible Light 15h 28m
Length of Day
14h 24m
Waning Crescent, 2% of the Moon is Illuminated
May 8
Waning Crescent
May 9
New
May 18
First Quarter
May 25
Full
May 31
Last Quarter

Hourly Weather History & Observations

Time (EDT) Temp. Dew Point Humidity Pressure Visibility Wind Dir Wind Speed Gust Speed Precip Events Conditions
12:14 AM 61.2 °F 50.7 °F 69% 30.02 in 10.0 mi Calm Calm - N/A   Scattered Clouds
12:34 AM 59.9 °F 50.9 °F 72% 30.02 in 10.0 mi Calm Calm - N/A   Scattered Clouds
12:54 AM 57.9 °F 51.1 °F 78% 30.02 in 10.0 mi ENE 3.5 mph - N/A   Clear
1:14 AM 57.0 °F 50.7 °F 79% 30.02 in 10.0 mi ENE 3.5 mph - N/A   Clear
1:34 AM 57.2 °F 50.4 °F 78% 30.02 in 10.0 mi NE 4.6 mph - N/A   Clear
1:54 AM 57.7 °F 50.2 °F 76% 30.02 in 10.0 mi ENE 4.6 mph - N/A   Clear
2:14 AM 57.4 °F 50.9 °F 79% 30.02 in 10.0 mi ENE 3.5 mph - N/A   Clear
2:34 AM 57.7 °F 50.4 °F 76% 30.02 in 10.0 mi East 4.6 mph - N/A   Clear
2:54 AM 56.8 °F 50.7 °F 80% 30.01 in 10.0 mi East 4.6 mph - N/A   Clear
3:14 AM 56.5 °F 50.7 °F 81% 30.01 in 10.0 mi SSE 3.5 mph - N/A   Scattered Clouds
3:34 AM 56.8 °F 50.9 °F 80% 30.01 in 10.0 mi Calm Calm - N/A   Clear
3:54 AM 53.1 °F 49.5 °F 88% 30.01 in 10.0 mi Calm Calm - N/A   Clear
4:14 AM 52.7 °F 50.4 °F 92% 30.01 in 10.0 mi Calm Calm - N/A   Clear
4:34 AM 52.2 °F 50.2 °F 93% 30.02 in 10.0 mi Calm Calm - N/A   Clear
4:54 AM 52.3 °F 50.2 °F 92% 30.01 in 10.0 mi Calm Calm - N/A   Clear
5:14 AM 51.4 °F 50.2 °F 95% 30.02 in 10.0 mi Calm Calm - N/A   Clear
5:34 AM 51.1 °F 50.4 °F 97% 30.01 in 10.0 mi ENE 3.5 mph - N/A   Clear
5:54 AM 51.1 °F 50.4 °F 97% 30.01 in 10.0 mi Calm Calm - N/A   Clear
6:14 AM 52.2 °F 51.3 °F 97% 30.01 in 10.0 mi NNE 3.5 mph - N/A   Clear
6:34 AM 51.3 °F 49.8 °F 95% 30.02 in 5.0 mi Calm Calm - N/A   Clear
6:54 AM 52.9 °F 51.3 °F 94% 30.02 in 10.0 mi Calm Calm - N/A   Clear
7:14 AM 53.4 °F 52.0 °F 95% 30.03 in 10.0 mi Calm Calm - N/A   Clear
7:34 AM 54.5 °F 52.5 °F 93% 30.03 in 7.0 mi Calm Calm - N/A   Clear
7:54 AM 57.6 °F 53.6 °F 87% 30.03 in 7.0 mi Calm Calm - N/A   Clear
8:14 AM 61.0 °F 53.6 °F 77% 30.04 in 10.0 mi Calm Calm - N/A   Clear
8:34 AM 64.2 °F 54.3 °F 70% 30.03 in 10.0 mi WNW 3.5 mph - N/A   Clear
8:54 AM 64.6 °F 53.1 °F 66% 30.03 in 10.0 mi Calm Calm - N/A   Clear
9:14 AM 66.0 °F 53.2 °F 63% 30.04 in 10.0 mi North 3.5 mph - N/A   Clear
9:34 AM 67.1 °F 54.3 °F 63% 30.04 in 10.0 mi Calm Calm - N/A   Clear
9:54 AM 68.7 °F 54.1 °F 60% 30.04 in 10.0 mi NNW 4.6 mph - N/A   Clear
10:14 AM 70.2 °F 52.2 °F 53% 30.04 in 10.0 mi NW 3.5 mph - N/A   Clear
10:34 AM 71.8 °F 50.5 °F 47% 30.04 in 10.0 mi North 3.5 mph - N/A   Clear
10:54 AM 72.0 °F 48.6 °F 43% 30.04 in 10.0 mi Calm Calm - N/A   Clear
11:14 AM 72.9 °F 49.8 °F 44% 30.03 in 10.0 mi North 3.5 mph - N/A   Clear
11:34 AM 73.4 °F 50.4 °F 44% 30.03 in 10.0 mi East 3.5 mph - N/A   Clear
11:54 AM 74.5 °F 49.1 °F 41% 30.03 in 10.0 mi Calm Calm - N/A   Clear
12:00 PM 74.5 °F 50.9 °F 43% 30.03 in 10.0 mi NNE 6.9 mph - N/A   Clear
12:42 PM - - N/A% - - North - - N/A   Unknown
12:59 PM - - N/A% - - North - - N/A   Unknown
1:17 PM 77.0 °F 50.0 °F 39% 30.01 in 10.0 mi North 3.5 mph - N/A   Clear
1:37 PM - - N/A% - 10.0 mi Calm Calm - N/A   Unknown
1:57 PM 77.0 °F 48.2 °F 36% 30.00 in 10.0 mi Calm Calm - N/A   Clear
2:29 PM 78.8 °F 50.0 °F 36% 29.99 in 10.0 mi ENE 5.8 mph - N/A   Mostly Cloudy
2:39 PM 75.2 °F 48.2 °F 38% - 10.0 mi NNE 3.5 mph - N/A   Mostly Cloudy
3:04 PM 77.0 °F 48.2 °F 36% 29.98 in 10.0 mi NNE 3.5 mph - N/A   Scattered Clouds
3:19 PM 75.2 °F 46.4 °F 36% 29.99 in 10.0 mi North - - N/A Rain Light Rain
3:37 PM - - N/A% - 10.0 mi NNE 4.6 mph - N/A Rain Rain
3:56 PM 73.4 °F 53.6 °F 50% 29.98 in 7.0 mi Calm Calm - 0.01 in   Scattered Clouds
4:36 PM 77.0 °F 50.0 °F 39% 29.97 in 10.0 mi Calm Calm - N/A   Clear
4:56 PM - - N/A% - 10.0 mi West 5.8 mph - N/A   Unknown
5:16 PM - - N/A% - - WNW 5.8 mph - N/A   Unknown
5:36 PM - - N/A% - - North - - N/A   Unknown
5:55 PM - - N/A% - 1.9 mi North - - N/A   Unknown
6:17 PM 73.4 °F 50.0 °F 44% 29.96 in 10.0 mi WNW 9.2 mph - N/A   Clear
6:37 PM - - N/A% - - North - - N/A   Unknown
6:56 PM - - N/A% - - North - - N/A   Unknown
7:37 PM 71.6 °F 50.0 °F 46% 29.96 in 10.0 mi NNW 4.6 mph - N/A   Clear
7:56 PM - - N/A% - 10.0 mi North 5.8 mph - N/A   Unknown
8:16 PM 71.6 °F 50.0 °F 46% 29.96 in 10.0 mi North 4.6 mph - N/A   Clear
8:37 PM - - N/A% - 2.2 mi North - - N/A   Unknown
8:56 PM - - N/A% - 10.0 mi NNW 3.5 mph - N/A   Unknown
9:21 PM - - N/A% - - North 4.6 mph - N/A   Unknown
9:37 PM - - N/A% - 2.2 mi North - - N/A   Unknown
9:55 PM - - N/A% - - NNW 4.6 mph - N/A   Unknown
10:17 PM - - N/A% - - North - - N/A   Unknown
10:36 PM - - N/A% - - North - - N/A   Unknown
10:55 PM - - N/A% - - Calm Calm - N/A   Unknown
11:19 PM - - N/A% - - West 3.5 mph - N/A   Unknown
11:40 PM - - N/A% - - West 3.5 mph - N/A   Unknown
11:56 PM 64.4 °F 53.6 °F 68% 29.97 in 10.0 mi Calm Calm - N/A   Scattered Clouds